Tracking 19146 objects as of 23-Apr-2018
HD Live streaming from Space Station
objects crossing your sky now

SL-16 DEB

Track SL-16 DEB now!
10-day predictions


NORAD ID: 24299
Int'l Code: 1996-051C
Perigee: 847.0 km
Apogee: 1,129.2 km
Inclination: 71.0 °
Period: 104.7 minutes
Semi major axis: 7359 km
RCS: 0.09 m2 (small)
Launch date: September 4, 1996
Source: Commonwealth of Independent States (former USSR) (CIS)
Launch site: TYURATAM MISSILE AND SPACE COMPLEX (TTMTR)

Note: This is SATELLITE DEBRIS
aabbcc
Your satellite tracking list
Your tracking list is empty




NASA's NSSDC Master Catalog

Two Line Element Set (TLE):
1 24299U 96051C   18112.56874518 -.00000003 +00000-0 +37253-4 0  9992
2 24299 071.0377 161.8286 0191773 312.1458 046.3484 13.75194856085299
Source of the keplerian elements: AFSPC